Regional Weather Roundup
Issued by NWS

Home | Current Version | Previous Version | Graphics & Text | Print | Product List | Glossary On
Versions: 1 2 3 4 5 6 7 8 9 10 11 12 13 14 15 16 17 18 19 20 21 22 23 24 25 26 27 28 29 30 31 32 33 34 35 36 37 38 39 40 41 42 43 44 45 46 47 48 49 50
000
ASUS43 KLSX 270507
RWRMO

WEATHER SUMMARY FOR MISSOURI
NATIONAL WEATHER SERVICE SPRINGFIELD MO
1200 AM CDT MON APR 27 2015

NOTE: "FAIR" INDICATES FEW OR NO CLOUDS BELOW 12,000 FEET WITH NO
       SIGNIFICANT WEATHER AND/OR OBSTRUCTIONS TO VISIBILITY.
       CURRENT SKY AND/OR WEATHER CONDITIONS ARE NOT AVAILABLE FOR
       CHILLICOTHE AND FARMINGTON.

MOZ001>031-035>038-043-044-053-054-270600-
...NORTHERN AND WESTERN MISSOURI...

CITY           SKY/WX    TMP DP  RH WIND       PRES   REMARKS
KANSAS CTY INT PTCLDY    49  38  65 NE8       30.03S
KANSAS C DTWN  PTCLDY    52  37  56 NE9       30.02S
LEE`S SUMMIT   PTCLDY    50  36  58 NE8       30.03R
ST JOSEPH      PTCLDY    52  32  46 NE14      30.06S
CHILLICOTHE      N/A     49  37  63 NE5       30.08R
KIRKSVILLE     CLEAR     45  35  68 NE6       30.08R

$$
MOZ066>068-077>081-088>096-101>105-270600-
...SOUTHWEST MISSOURI...

CITY           SKY/WX    TMP DP  RH WIND       PRES   REMARKS
SPRINGFIELD    CLOUDY    52  38  58 E13       29.95S
JOPLIN         CLOUDY    51  45  79 NE7       29.94R

$$
MOZ032>034-039>042-045>050-055>058-069>072-270600-
...CENTRAL MISSOURI...

CITY           SKY/WX    TMP DP  RH WIND       PRES   REMARKS
COLUMBIA       CLEAR     47  37  68 NE9       30.03S
JEFFERSON CITY CLEAR     52  34  50 NE10      30.02S
ROLLA          PTCLDY    48  36  63 NE10      30.00R
SEDALIA        CLEAR     51  35  54 NE9       30.04R
WHITEMAN AFB   CLEAR     48  37  67 NE7       30.02R
WARRENSBURG    CLEAR     48  36  61 NE8       30.03R
OSAGE BEACH    PTCLDY    50  34  53 E8        30.01R

$$
MOZ051-052-059>065-270600-
...EAST CENTRAL MISSOURI...

CITY           SKY/WX    TMP DP  RH WIND       PRES   REMARKS
ST LOUIS INTL  PTCLDY    51  35  54 NE5       30.04S
SPIRIT OF STL  CLEAR     44  39  82 CALM      30.04R
ST CHARLES     CLEAR     44  39  82 NE3       30.05R

$$
MOZ072>076-082>087-097>100-106>115-270600-
...SOUTH CENTRAL AND SOUTHEAST MISSOURI...

CITY           SKY/WX    TMP DP  RH WIND       PRES   REMARKS
CAPE GIRARDEAU CLEAR     50  40  68 NE8       29.98R
FARMINGTON     FAIR      48  37  66 NE7       30.04R
POPLAR BLUFF   CLEAR     53  38  56 NE9       29.95R
WEST PLAINS    MOCLDY    50  37  61 NE7       29.97S

$$


USA.gov is the U.S. government's official web portal to all federal, state and local government web resources and services.